Regional Weather Roundup
Issued by NWS Northern Indiana

Home | Current Version | Previous Version | Text Only | Print | Product List | Glossary On
Versions: 1 2 3 4 5 6 7 8 9 10 11 12 13 14 15 16 17 18 19 20 21 22 23 24 25 26 27 28 29 30 31 32 33 34 35 36 37 38 39 40 41 42 43 44 45 46 47 48 49 50
000
ASUS43 KIWX 250410
RWRIWX

KIWX WEATHER ROUNDUP
NATIONAL WEATHER SERVICE NORTHERN INDIANA
1200 AM EDT SUN JUN 25 2017

NOTE: "FAIR" INDICATES FEW OR NO CLOUDS BELOW 12,000 FEET WITH NO
SIGNIFICANT WEATHER AND/OR OBSTRUCTIONS TO VISIBILITY.

* THESE STATIONS ARE NOT UNDER NWS QUALITY CONTROL. THEY ALSO MAY NOT
  REPORT WEATHER SUCH AS PRECIPITATION OR FOG.

INZ001>027-250500-
NORTHERN INDIANA

CITY           SKY/WX    TMP DP  RH WIND       PRES   REMARKS
GARY*          MOCLDY    62  44  52 CALM      30.07S
VALPARAISO     PTCLDY    62  46  55 CALM      30.07F
MICHIGAN CITY* CLOUDY    61  50  67 CALM      30.06F
LAPORTE*       MOCLDY    59  50  73 SW3       30.08S
KNOX*          PTCLDY    55  39  54 S3        30.08S
SOUTH BEND     MOCLDY    59  48  67 SW6       30.07S
GOSHEN         CLEAR     59  46  62 W7        30.07R
MONTICELLO*    CLEAR     60  48  65 SW5       30.10R
LOGANSPORT*    CLEAR     55  48  76 SW7       30.11R
ROCHESTER*     CLEAR     63  46  55 CALM      30.09S
WARSAW*        CLEAR     59  46  63 W6        30.08S
AUBURN*        PTCLDY    63  50  63 W3        30.07R
FORT WAYNE     PTCLDY    63  49  60 W10       30.08R
HUNTINGTON*    PTCLDY    60  48  64 W7        30.09R
PERU/GRISSOM   CLEAR     58  49  71 SW6       30.08R
MARION*        CLEAR     59  48  67 W7        30.11R

$$
INZ028>050-250500-
CENTRAL INDIANA

CITY           SKY/WX    TMP DP  RH WIND       PRES   REMARKS
LAFAYETTE      CLEAR     57  51  80 CALM      30.11R
KOKOMO*        CLEAR     62  48  60 W8        30.11S
MUNCIE*        CLEAR     63  50  62 W6        30.10S
INDIANAPOLIS   PTCLDY    62  50  64 W8        30.13R

$$
MIZ043>046-050>051-056>058-064>065-071>073-077>080-250500-
SOUTHWEST LOWER MICHIGAN

CITY           SKY/WX    TMP DP  RH WIND       PRES   REMARKS
BATTLE CREEK   PTCLDY    56  49  77 SW7       30.04R
BENTON HARBOR  CLOUDY    64  50  60 W8        30.04S
COLDWATER*     PTCLDY    60  48  63 W7        30.04S
HILLSDALE*     CLEAR     55  46  71 CALM      30.04R
HOLLAND        CLEAR     56  51  84 SW3       30.01F
GRAND RAPIDS   PTCLDY    60  51  72 SW8       30.00S
KALAMAZOO      CLEAR     59  47  64 SW6       30.04S
STURGIS*       PTCLDY    61  50  66 W5        30.05R
THREE RIVERS*  FAIR      60  49  65 SW3       30.06R

$$
OHZ001>008-015>018-024>025-250500-
NORTHWEST OHIO

CITY           SKY/WX    TMP DP  RH WIND       PRES   REMARKS
WAUSEON*       FAIR      61  50  67 W6        30.04R
DEFIANCE       MOCLDY    60  53  77 CALM      30.05R
FINDLAY        MOCLDY    64  53  67 SW5       30.04R
TOLEDO EXPRESS PTCLDY    60  51  72 W5        30.03S
TOLEDO METCALF PTCLDY    62  50  64 NW7       30.03S
LIMA           PTCLDY    63  52  67 W9        30.06S

$$
AND FOR LAKE MICHIGAN COASTAL AND OPEN LAKE BUOY OBSERVATIONS

STATION/POSITION TEMP    WIND        PRES    VSBY  WAVE
                 AIR SEA DIR/SP/G                  HT/PER
                 (F)     (DEG/KT/KT) (MB)    (MI)  (FT/S)
CALUMET HARBOR    66     270/  2/  4 1017.3R
MICHIGAN CITY     67     270/  7/  8   N/A
BURNS HARBOR      68     260/  7/  8 1018.3S
SOUTH LAKE BUOY   62 62  300/ 14/ 17 1015.9F         3/ 4
4 MI NW BRIDGMAN  67 68  320/ 14/ 21 1017.4          3/ 4
MICHIGAN CITY     67 67  310/ 12/ 16   N/A           3/ 4

$$
&&




USA.gov is the U.S. government's official web portal to all federal, state and local government web resources and services.